Location: Marion Hill
(40.7303°N, 80.2959°W)
Time: 18:46:27
(UTC+00:00)

Cosmos 1745 Rocket - Pass Details

Date: 29 October 2020
Orbit: 953 x 997 km, 83.0° (Epoch: 23 November)

Event Time Altitude Azimuth Distance (km) Brightness Sun altitude
Rises 23:22:36 0° 357° (N) 3,696 7.0 -12.3°
Reaches altitude 10° 23:25:11 10° 2° (N) 2,750 6.3 -12.8°
Maximum altitude 23:31:22 53° 79° (E) 1,199 4.1 -14.0°
Drops below altitude 10° 23:37:31 10° 156° (SSE) 2,754 6.2 -15.1°
Sets 23:40:07 0° 160° (SSE) 3,701 6.9 -15.6°
